Location: Moscow
(55.7500°N, 37.5833°E)
Time: 22:07:08
(UTC+03:00)

NOAA 19 - All Passes

Search period start: 17 January 2021 00:00
Search period end: 27 January 2021 00:00
Orbit: 841 x 861 km, 99.2° (Epoch: 17 January)

Date Brightness Start Highest point End Pass type
(mag) Time Alt. Az. Time Alt. Az. Time Alt. Az.
17 Jan - 05:56:24 10° NE 05:59:49 16° E 06:03:11 10° ESE visible
17 Jan - 07:35:52 10° NNE 07:41:26 77° ESE 07:46:54 10° SSW visible
17 Jan - 09:17:05 10° N 09:21:39 27° NW 09:26:10 10° WSW daylight
17 Jan - 15:51:44 10° E 15:55:12 17° NE 15:58:40 10° N daylight
17 Jan - 17:29:27 10° SE 17:34:54 60° ENE 17:40:22 10° NNW visible
17 Jan - 19:11:02 10° SSW 19:15:55 31° W 19:20:50 10° NNW visible
18 Jan - 05:45:13 10° NE 05:47:51 13° E 05:50:28 10° ESE visible
18 Jan - 07:24:09 10° NNE 07:29:39 64° ESE 07:35:05 10° S visible
18 Jan - 09:05:13 10° N 09:10:01 31° NW 09:14:47 10° WSW daylight
18 Jan - 10:48:45 10° NNW 10:49:08 10° NNW 10:49:31 10° NW daylight
18 Jan - 15:40:38 10° ENE 15:43:39 15° NE 15:46:41 10° N daylight
18 Jan - 17:17:51 10° SE 17:23:12 51° ENE 17:28:33 10° N visible
18 Jan - 18:58:57 10° SSW 19:04:04 37° W 19:09:11 10° NNW visible
19 Jan - 05:34:33 10° ENE 05:35:52 11° E 05:37:10 10° E visible
19 Jan - 07:12:26 10° NNE 07:17:50 53° E 07:23:11 10° S visible
19 Jan - 08:53:22 10° N 08:58:22 37° WNW 09:03:20 10° WSW daylight
19 Jan - 10:35:54 10° NNW 10:37:38 11° NW 10:39:22 10° NW daylight
19 Jan - 15:29:37 10° ENE 15:32:07 13° NE 15:34:37 10° NNE daylight
19 Jan - 17:06:19 10° SE 17:11:32 43° ENE 17:16:44 10° N daylight
19 Jan - 18:46:55 10° S 18:52:13 44° W 18:57:32 10° NNW visible
20 Jan - 07:00:45 10° NNE 07:06:01 44° E 07:11:14 10° S visible
20 Jan - 08:41:32 10° N 08:46:43 43° WNW 08:51:50 10° SW daylight
20 Jan - 10:23:41 10° NNW 10:26:07 13° NW 10:28:32 10° WNW daylight
20 Jan - 15:18:47 10° NE 15:20:36 12° NE 15:22:24 10° NNE daylight
20 Jan - 16:54:50 10° ESE 16:59:52 37° ENE 17:04:54 10° N daylight
20 Jan - 18:34:58 10° S 18:40:24 53° WSW 18:45:51 10° NNW visible
20 Jan - 20:20:53 10° W 20:22:22 11° W 20:23:50 10° WNW visible
21 Jan - 06:49:05 10° NNE 06:54:10 37° E 06:59:13 10° SSE visible
21 Jan - 08:29:43 10° N 08:35:02 50° WNW 08:40:18 10° SW daylight
21 Jan - 10:11:37 10° N 10:14:35 15° NW 10:17:32 10° WNW daylight
21 Jan - 15:08:29 10° NE 15:09:05 10° NNE 15:09:43 10° NNE daylight
21 Jan - 16:43:24 10° ESE 16:48:14 32° NE 16:53:03 10° N daylight
21 Jan - 18:23:05 10° S 18:28:36 64° WSW 18:34:08 10° NNW visible
21 Jan - 20:07:40 10° WSW 20:10:23 14° W 20:13:05 10° NW visible
22 Jan - 06:37:27 10° NNE 06:42:19 31° E 06:47:07 10° SSE visible
22 Jan - 08:17:54 10° NNE 08:23:20 60° WNW 08:28:42 10° SW daylight
22 Jan - 09:59:37 10° N 10:03:01 17° NW 10:06:25 10° W daylight
22 Jan - 16:32:01 10° ESE 16:36:36 27° NE 16:41:11 10° N daylight
22 Jan - 18:11:16 10° SSE 18:16:49 77° WSW 18:22:23 10° NNW visible
22 Jan - 19:54:58 10° SW 19:58:25 17° W 20:01:53 10° NW visible
23 Jan - 06:25:53 10° NE 06:30:25 26° E 06:34:56 10° SSE visible
23 Jan - 08:06:07 10° NNE 08:11:36 71° WNW 08:17:03 10° SSW daylight
23 Jan - 09:47:40 10° N 09:51:27 19° NW 09:55:14 10° W daylight
23 Jan - 16:20:40 10° ESE 16:24:59 24° NE 16:29:17 10° N daylight
23 Jan - 17:59:30 10° SSE 18:05:03 90° SW 18:10:38 10° NNW visible
23 Jan - 19:42:30 10° SW 19:46:29 20° W 19:50:30 10° NW visible
24 Jan - 06:14:22 10° NE 06:18:31 21° E 06:22:38 10° SE visible
24 Jan - 07:54:21 10° NNE 07:59:53 84° WNW 08:05:21 10° SSW visible
24 Jan - 09:35:45 10° N 09:39:53 22° NW 09:43:58 10° W daylight
24 Jan - 16:09:24 10° E 16:13:24 21° NE 16:17:23 10° N daylight
24 Jan - 17:47:47 10° SSE 17:53:19 77° ENE 17:58:52 10° NNW visible
24 Jan - 19:30:10 10° SW 19:34:35 24° W 19:39:00 10° NW visible
25 Jan - 06:02:56 10° NE 06:06:35 18° E 06:10:13 10° SE visible
25 Jan - 07:42:35 10° NNE 07:48:07 83° ESE 07:53:36 10° SSW visible
25 Jan - 09:23:51 10° N 09:28:16 25° NW 09:32:40 10° WSW daylight
25 Jan - 15:58:11 10° E 16:01:49 18° NE 16:05:27 10° N daylight
25 Jan - 17:36:07 10° SSE 17:41:35 65° ENE 17:47:04 10° NNW visible
25 Jan - 19:17:56 10° SSW 19:22:41 29° W 19:27:27 10° NNW visible
26 Jan - 05:51:39 10° NE 05:54:38 15° E 05:57:36 10° ESE visible
26 Jan - 07:30:51 10° NNE 07:36:20 69° ESE 07:41:48 10° S visible
26 Jan - 09:11:58 10° N 09:16:39 29° NW 09:21:18 10° WSW daylight
26 Jan - 15:47:03 10° ENE 15:50:16 16° NE 15:53:28 10° N daylight
26 Jan - 17:24:30 10° SE 17:29:53 55° ENE 17:35:16 10° NNW visible
26 Jan - 19:05:49 10° SSW 19:10:48 34° W 19:15:50 10° NNW visible
